Weather History for Oakes, ND

Change the Weather History Date:

Tuesday, May 8, 2012

  Actual Average (KABR) Record (KABR)
Temperature  
Mean Temperature 50 °F 54 °F  
Max Temperature 55 °F 67 °F 105 °F (1934)
Min Temperature 44 °F 41 °F 22 °F (1945)
Degree Days  
Heating Degree Days 16 11  
Month to date heating degree days 100  
Since 1 July heating degree days 8271  
Cooling Degree Days 0 0  
Month to date cooling degree days 0  
Year to date cooling degree days 2  
Moisture  
Dew Point 44 °F    
Average Humidity 84    
Maximum Humidity 100    
Minimum Humidity 58    
Precipitation  
Precipitation 0.00 in 0.10 in 3.37 in (1945)
Month to date precipitation 0.81  
Year to date precipitation 4.84  
Sea Level Pressure  
Sea Level Pressure 30.02 in    
Wind  
Wind Speed 16 mph (NW)    
Max Wind Speed 26 mph    
Max Gust Speed 33 mph    
Visibility 10 miles    
Events Rain    
T = Trace of Precipitation, MM = Missing Value Source: NWS Daily Summary

Daily Weather History Graph

Daily Weather History Graph

Search for Another Location

Airport:

Trip Planner

Search our weather history database for the weather conditions in past years. The results will help you decide how hot, cold, wet, or windy it might be!

Date:

Astronomy

May. 08, 2012 Rise Set
Actual Time 6:07 AM CDT 8:50 PM CDT
Civil Twilight 5:33 AM CDT 9:24 PM CDT
Nautical Twilight 4:50 AM CDT 10:08 PM CDT
Astronomical Twilight 3:59 AM CDT 10:59 PM CDT
Moon No Moon Rise 8:12 AM CDT (5/8)
Length of Visible Light 15h 51m
Length of Day
14h 42m
Waning Gibbous, 90% of the Moon is Illuminated
May 8
Waning Gibbous
May 12
Last Quarter
May 20
New
May 28
First Quarter
Jun 4
Full

Hourly Weather History & Observations

Time (CDT) Temp. Windchill Dew Point Humidity Pressure Visibility Wind Dir Wind Speed Gust Speed Precip Events Conditions
12:15 AM 48.2 °F - 44.6 °F 87% 29.95 in 10.0 mi WNW 10.4 mph - N/A   Mostly Cloudy
12:35 AM 48.2 °F - 46.4 °F 93% 29.95 in 10.0 mi WNW 15.0 mph - N/A   Overcast
12:55 AM 48.2 °F - 46.4 °F 93% 29.95 in 10.0 mi WNW 15.0 mph - N/A   Overcast
1:15 AM 48.2 °F - 46.4 °F 93% 29.94 in 10.0 mi WNW 17.3 mph - N/A   Mostly Cloudy
1:35 AM 48.2 °F - 46.4 °F 93% 29.94 in 10.0 mi WNW 12.7 mph - N/A   Scattered Clouds
1:55 AM 48.2 °F - 46.4 °F 93% 29.94 in 10.0 mi WNW 15.0 mph - N/A   Mostly Cloudy
2:15 AM 46.4 °F 40.4 °F 46.4 °F 100% 29.94 in 10.0 mi WNW 13.8 mph - N/A   Mostly Cloudy
2:35 AM 46.4 °F 39.5 °F 46.4 °F 100% 29.94 in 10.0 mi WNW 17.3 mph - N/A   Mostly Cloudy
2:55 AM 46.4 °F 41.1 °F 46.4 °F 100% 29.94 in 10.0 mi WNW 11.5 mph - N/A   Overcast
3:15 AM 46.4 °F 41.1 °F 46.4 °F 100% 29.94 in 10.0 mi WNW 11.5 mph - N/A   Overcast
3:35 AM 48.2 °F - 46.4 °F 93% 29.94 in 10.0 mi WNW 12.7 mph - N/A   Overcast
3:55 AM 48.2 °F - 46.4 °F 93% 29.94 in 10.0 mi NW 18.4 mph 23.0 mph N/A   Overcast
4:15 AM 46.4 °F 38.3 °F 46.4 °F 100% 29.94 in 5.0 mi NW 23.0 mph 27.6 mph N/A Rain Light Rain
4:35 AM 46.4 °F 39.8 °F 46.4 °F 100% 29.95 in 10.0 mi NW 16.1 mph 20.7 mph N/A   Mostly Cloudy
4:55 AM 46.4 °F 40.7 °F 46.4 °F 100% 29.95 in 10.0 mi NW 12.7 mph - N/A Rain Light Rain
5:15 AM 46.4 °F 41.1 °F 46.4 °F 100% 29.95 in 10.0 mi NW 11.5 mph - N/A Rain Light Rain
5:35 AM 46.4 °F 40.4 °F 46.4 °F 100% 29.95 in 10.0 mi NW 13.8 mph 18.4 mph N/A Rain Light Rain
5:55 AM 46.4 °F 40.1 °F 46.4 °F 100% 29.96 in 10.0 mi NW 15.0 mph 18.4 mph N/A   Mostly Cloudy
6:15 AM 46.4 °F 40.1 °F 46.4 °F 100% 29.96 in 10.0 mi NW 15.0 mph 20.7 mph N/A   Mostly Cloudy
6:35 AM 44.6 °F 37.8 °F 44.6 °F 100% 29.97 in 7.0 mi NW 15.0 mph 20.7 mph N/A   Overcast
6:55 AM 44.6 °F 38.4 °F 44.6 °F 100% 29.97 in 3.0 mi NW 12.7 mph - N/A Rain Light Rain
7:15 AM 44.6 °F 38.4 °F 44.6 °F 100% 29.98 in 9.0 mi NW 12.7 mph 19.6 mph N/A Rain Light Rain
7:35 AM 44.6 °F 37.2 °F 44.6 °F 100% 29.98 in 7.0 mi NW 17.3 mph - N/A   Overcast
7:55 AM 44.6 °F 36.6 °F 44.6 °F 100% 29.98 in 10.0 mi NW 19.6 mph 23.0 mph N/A   Overcast
8:15 AM 46.4 °F 38.5 °F 46.4 °F 100% 29.99 in 10.0 mi NNW 21.9 mph 27.6 mph N/A   Overcast
8:35 AM 46.4 °F 39.0 °F 46.4 °F 100% 30.00 in 7.0 mi NW 19.6 mph 26.5 mph N/A   Overcast
8:55 AM 46.4 °F 38.7 °F 46.4 °F 100% 30.00 in 10.0 mi NNW 20.7 mph 26.5 mph N/A   Mostly Cloudy
9:15 AM 46.4 °F 39.5 °F 46.4 °F 100% 30.00 in 10.0 mi NW 17.3 mph - N/A   Overcast
9:35 AM 46.4 °F 38.7 °F 46.4 °F 100% 30.01 in 10.0 mi NW 20.7 mph 27.6 mph N/A   Overcast
9:55 AM 48.2 °F - 46.4 °F 93% 30.01 in 10.0 mi NNW 20.7 mph 26.5 mph N/A   Overcast
10:15 AM 48.2 °F - 46.4 °F 93% 30.01 in 10.0 mi NW 20.7 mph 25.3 mph N/A   Overcast
10:55 AM 50.0 °F - 46.4 °F 87% 30.02 in 10.0 mi NNW 23.0 mph 29.9 mph N/A   Overcast
11:15 AM 50.0 °F - 46.4 °F 87% 30.02 in 10.0 mi NW 21.9 mph 28.8 mph N/A   Overcast
11:35 AM 50.0 °F - 44.6 °F 82% 30.02 in 8.0 mi NNW 20.7 mph 29.9 mph N/A   Overcast
11:55 AM 50.0 °F - 44.6 °F 82% 30.03 in 10.0 mi NW 19.6 mph 31.1 mph N/A   Overcast
12:15 PM 50.0 °F - 44.6 °F 82% 30.03 in 10.0 mi NNW 23.0 mph 29.9 mph N/A   Overcast
12:35 PM 50.0 °F - 44.6 °F 82% 30.03 in 10.0 mi NNW 26.5 mph 33.4 mph N/A   Overcast
12:55 PM 50.0 °F - 44.6 °F 82% 30.04 in 9.0 mi NNW 19.6 mph 27.6 mph N/A   Overcast
1:15 PM 50.0 °F - 44.6 °F 82% 30.04 in 10.0 mi NNW 23.0 mph - N/A   Overcast
1:55 PM 53.6 °F - 44.6 °F 72% 30.03 in 10.0 mi NNW 23.0 mph - N/A   Overcast
2:15 PM 53.6 °F - 42.8 °F 67% 30.04 in 10.0 mi NNW 24.2 mph 28.8 mph N/A   Overcast
2:35 PM 53.6 °F - 42.8 °F 67% 30.04 in 10.0 mi NNW 19.6 mph 24.2 mph N/A   Overcast
2:55 PM 55.4 °F - 41.0 °F 58% 30.04 in 10.0 mi NNW 21.9 mph 26.5 mph N/A   Overcast
3:15 PM 53.6 °F - 42.8 °F 67% 30.04 in 10.0 mi NNW 20.7 mph 31.1 mph N/A   Overcast
3:35 PM 55.4 °F - 41.0 °F 58% 30.04 in 10.0 mi NNW 21.9 mph 27.6 mph N/A   Overcast
3:55 PM 53.6 °F - 42.8 °F 67% 30.04 in 10.0 mi North 20.7 mph 26.5 mph N/A   Overcast
4:15 PM 53.6 °F - 41.0 °F 62% 30.05 in 10.0 mi NNW 20.7 mph 27.6 mph N/A   Overcast
4:35 PM 53.6 °F - 41.0 °F 62% 30.05 in 10.0 mi NNW 21.9 mph 26.5 mph N/A   Overcast
5:15 PM 53.6 °F - 42.8 °F 67% 30.06 in 10.0 mi NNW 23.0 mph 27.6 mph N/A   Overcast
5:35 PM 51.8 °F - 41.0 °F 67% 30.06 in 10.0 mi NNW 20.7 mph - N/A   Overcast
5:55 PM 51.8 °F - 41.0 °F 67% 30.06 in 10.0 mi NNW 18.4 mph 21.9 mph N/A   Mostly Cloudy
6:15 PM 51.8 °F - 41.0 °F 67% 30.07 in 10.0 mi North 18.4 mph 23.0 mph N/A   Mostly Cloudy
6:35 PM 51.8 °F - 41.0 °F 67% 30.07 in 10.0 mi North 13.8 mph - N/A   Overcast
6:55 PM 51.8 °F - 41.0 °F 67% 30.07 in 10.0 mi NNW 13.8 mph - N/A   Overcast
7:15 PM 51.8 °F - 41.0 °F 67% 30.07 in 10.0 mi North 16.1 mph - N/A   Overcast
7:35 PM 51.8 °F - 41.0 °F 67% 30.07 in 10.0 mi NNW 12.7 mph - N/A   Overcast
7:55 PM 51.8 °F - 41.0 °F 67% 30.08 in 10.0 mi NNW 12.7 mph - N/A   Overcast
8:15 PM 51.8 °F - 41.0 °F 67% 30.07 in 10.0 mi NNW 15.0 mph - N/A   Overcast
8:35 PM 50.0 °F - 41.0 °F 71% 30.08 in 10.0 mi NNW 12.7 mph - N/A   Overcast
8:55 PM 50.0 °F - 41.0 °F 71% 30.08 in 10.0 mi North 11.5 mph - N/A   Overcast
9:15 PM 50.0 °F - 41.0 °F 71% 30.08 in 10.0 mi NNW 9.2 mph - N/A   Overcast
9:35 PM 50.0 °F - 42.8 °F 76% 30.09 in 10.0 mi NW 8.1 mph - N/A   Overcast
9:55 PM 50.0 °F - 42.8 °F 76% 30.09 in 10.0 mi NW 8.1 mph - N/A   Overcast
10:15 PM 50.0 °F - 42.8 °F 76% 30.10 in 10.0 mi NW 6.9 mph - N/A   Overcast
10:35 PM 48.2 °F - 42.8 °F 82% 30.10 in 10.0 mi WNW 5.8 mph - N/A   Mostly Cloudy
10:55 PM 46.4 °F 43.5 °F 42.8 °F 87% 30.10 in 10.0 mi NW 5.8 mph - N/A   Partly Cloudy
11:15 PM 44.6 °F 41.4 °F 42.8 °F 93% 30.10 in 10.0 mi WNW 5.8 mph - N/A   Mostly Cloudy
11:55 PM 46.4 °F 45.2 °F 42.8 °F 87% 30.11 in 10.0 mi WNW 3.5 mph - N/A   Overcast